owner,sensor,date,latitude,longitude,vertical_datum,wind_speed,wind_to_direction,wind_speed_of_gust,qcFlag 
TCOON,ioos:station:TCOON:013:1,2017-09-01T00:00:00Z,27.4847,-97.3181,0.0,5.2,41.0,6.8,'11111222,11111222,11111222' 
TCOON,ioos:station:TCOON:013:1,2017-09-01T00:06:00Z,27.4847,-97.3181,0.0,5.3,46.0,6.9,'11111222,11111222,11111222' 
TCOON,ioos:station:TCOON:013:1,2017-09-01T00:12:00Z,27.4847,-97.3181,0.0,5.3,44.0,7.0,'11111222,11111222,11111222' 
TCOON,ioos:station:TCOON:013:1,2017-09-01T00:18:00Z,27.4847,-97.3181,0.0,5.4,53.0,6.6,'1111122,1111122,1111122' 
TCOON,ioos:station:TCOON:013:1,2017-09-01T00:24:00Z,27.4847,-97.3181,0.0,5.6,48.0,6.7,'11111222,11111222,11111222' 
TCOON,ioos:station:TCOON:013:1,2017-09-01T00:30:00Z,27.4847,-97.3181,0.0,5.0,47.0,6.4,'11111222,11111222,11111222' 
TCOON,ioos:station:TCOON:013:1,2017-09-01T00:36:00Z,27.4847,-97.3181,0.0,4.9,48.0,6.1,'11111222,11111222,11111222' 
TCOON,ioos:station:TCOON:013:1,2017-09-01T00:42:00Z,27.4847,-97.3181,0.0,4.7,49.0,5.3,'11111222,11111222,11111222' 
TCOON,ioos:station:TCOON:013:1,2017-09-01T00:48:00Z,27.4847,-97.3181,0.0,4.5,55.0,5.4,'11111222,11111222,11111222' 
TCOON,ioos:station:TCOON:013:1,2017-09-01T00:54:00Z,27.4847,-97.3181,0.0,4.0,58.0,5.4,'11111222,11111222,11111222' 
TCOON,ioos:station:TCOON:013:1,2017-09-01T01:00:00Z,27.4847,-97.3181,0.0,5.1,59.0,5.5,'11111222,11111222,11111222' 
TCOON,ioos:station:TCOON:013:1,2017-09-01T01:06:00Z,27.4847,-97.3181,0.0,4.1,57.0,5.4,'11111222,11111222,11111222' 
TCOON,ioos:station:TCOON:013:1,2017-09-01T01:12:00Z,27.4847,-97.3181,0.0,4.4,65.0,5.8,'11111222,11111222,11111222' 
TCOON,ioos:station:TCOON:013:1,2017-09-01T01:18:00Z,27.4847,-97.3181,0.0,4.4,63.0,5.6,'1111122,1111122,1111122' 
TCOON,ioos:station:TCOON:013:1,2017-09-01T01:24:00Z,27.4847,-97.3181,0.0,4.4,64.0,5.3,'11111222,11111222,11111222' 
TCOON,ioos:station:TCOON:013:1,2017-09-01T01:30:00Z,27.4847,-97.3181,0.0,3.7,60.0,5.5,'11111222,11111222,11111222' 
TCOON,ioos:station:TCOON:013:1,2017-09-01T01:36:00Z,27.4847,-97.3181,0.0,3.7,57.0,4.9,'11111222,11111222,11111222' 
TCOON,ioos:station:TCOON:013:1,2017-09-01T01:42:00Z,27.4847,-97.3181,0.0,3.7,58.0,4.5,'11111222,11111222,11111222' 
TCOON,ioos:station:TCOON:013:1,2017-09-01T01:48:00Z,27.4847,-97.3181,0.0,3.5,51.0,4.8,'11111222,11111222,11111222' 
TCOON,ioos:station:TCOON:013:1,2017-09-01T01:54:00Z,27.4847,-97.3181,0.0,3.4,51.0,4.8,'11111222,11111222,11111222' 
TCOON,ioos:station:TCOON:013:1,2017-09-01T02:00:00Z,27.4847,-97.3181,0.0,3.4,52.0,3.9,'11111222,11111222,11111222' 
TCOON,ioos:station:TCOON:013:1,2017-09-01T02:06:00Z,27.4847,-97.3181,0.0,3.1,52.0,3.9,'11111222,11111222,11111222' 
TCOON,ioos:station:TCOON:013:1,2017-09-01T02:12:00Z,27.4847,-97.3181,0.0,3.5,54.0,4.3,'11111222,11111222,11111222' 
TCOON,ioos:station:TCOON:013:1,2017-09-01T02:18:00Z,27.4847,-97.3181,0.0,3.0,49.0,3.8,'1111122,1111122,1111122' 
TCOON,ioos:station:TCOON:013:1,2017-09-01T02:24:00Z,27.4847,-97.3181,0.0,3.1,57.0,4.1,'11111222,11111222,11111222' 
TCOON,ioos:station:TCOON:013:1,2017-09-01T02:30:00Z,27.4847,-97.3181,0.0,3.3,56.0,3.8,'11111222,11111222,11111222' 
TCOON,ioos:station:TCOON:013:1,2017-09-01T02:36:00Z,27.4847,-97.3181,0.0,2.9,61.0,4.1,'11111222,11111222,11111222' 
TCOON,ioos:station:TCOON:013:1,2017-09-01T02:42:00Z,27.4847,-97.3181,0.0,3.1,55.0,4.1,'11111222,11111222,11111222' 
TCOON,ioos:station:TCOON:013:1,2017-09-01T02:48:00Z,27.4847,-97.3181,0.0,2.9,47.0,4.1,'11111222,11111222,11111222' 
TCOON,ioos:station:TCOON:013:1,2017-09-01T02:54:00Z,27.4847,-97.3181,0.0,3.1,47.0,3.7,'11111222,11111222,11111222' 
TCOON,ioos:station:TCOON:013:1,2017-09-01T03:00:00Z,27.4847,-97.3181,0.0,2.9,41.0,3.4,'11111222,11111222,11111222' 
TCOON,ioos:station:TCOON:013:1,2017-09-01T03:06:00Z,27.4847,-97.3181,0.0,2.9,40.0,3.3,'11111222,11111222,11111222' 
TCOON,ioos:station:TCOON:013:1,2017-09-01T03:12:00Z,27.4847,-97.3181,0.0,2.5,39.0,3.6,'11111222,11111222,11111222' 
TCOON,ioos:station:TCOON:013:1,2017-09-01T03:18:00Z,27.4847,-97.3181,0.0,2.8,34.0,3.2,'1111122,1111122,1111122' 
TCOON,ioos:station:TCOON:013:1,2017-09-01T03:24:00Z,27.4847,-97.3181,0.0,2.6,32.0,3.3,'11111222,11111222,11111222' 
TCOON,ioos:station:TCOON:013:1,2017-09-01T03:30:00Z,27.4847,-97.3181,0.0,2.8,33.0,3.5,'11111222,11111222,11111222' 
TCOON,ioos:station:TCOON:013:1,2017-09-01T03:36:00Z,27.4847,-97.3181,0.0,2.7,34.0,3.6,'11111222,11111222,11111222' 
TCOON,ioos:station:TCOON:013:1,2017-09-01T03:42:00Z,27.4847,-97.3181,0.0,3.3,29.0,3.9,'11111222,11111222,11111222' 
TCOON,ioos:station:TCOON:013:1,2017-09-01T03:48:00Z,27.4847,-97.3181,0.0,3.2,26.0,4.1,'11111222,11111222,11111222' 
TCOON,ioos:station:TCOON:013:1,2017-09-01T03:54:00Z,27.4847,-97.3181,0.0,3.0,24.0,3.5,'11111222,11111222,11111222' 
TCOON,ioos:station:TCOON:013:1,2017-09-01T04:00:00Z,27.4847,-97.3181,0.0,3.3,25.0,3.7,'11111222,11111222,11111222' 
TCOON,ioos:station:TCOON:013:1,2017-09-01T04:06:00Z,27.4847,-97.3181,0.0,2.8,32.0,3.4,'11111222,11111222,11111222' 
TCOON,ioos:station:TCOON:013:1,2017-09-01T04:12:00Z,27.4847,-97.3181,0.0,2.9,29.0,3.4,'11111222,11111222,11111222' 
TCOON,ioos:station:TCOON:013:1,2017-09-01T04:18:00Z,27.4847,-97.3181,0.0,2.8,30.0,3.6,'1111122,1111122,1111122' 
TCOON,ioos:station:TCOON:013:1,2017-09-01T04:24:00Z,27.4847,-97.3181,0.0,3.0,34.0,3.8,'11111222,11111222,11111222' 
TCOON,ioos:station:TCOON:013:1,2017-09-01T04:30:00Z,27.4847,-97.3181,0.0,2.6,36.0,3.3,'11111222,11111222,11111222' 
TCOON,ioos:station:TCOON:013:1,2017-09-01T04:36:00Z,27.4847,-97.3181,0.0,2.6,41.0,3.4,'11111222,11111222,11111222' 
TCOON,ioos:station:TCOON:013:1,2017-09-01T04:42:00Z,27.4847,-97.3181,0.0,2.5,42.0,3.4,'11111222,11111222,11111222' 
TCOON,ioos:station:TCOON:013:1,2017-09-01T04:48:00Z,27.4847,-97.3181,0.0,2.7,39.0,3.2,'11111222,11111222,11111222' 
TCOON,ioos:station:TCOON:013:1,2017-09-01T04:54:00Z,27.4847,-97.3181,0.0,2.8,47.0,3.5,'11111222,11111222,11111222' 
TCOON,ioos:station:TCOON:013:1,2017-09-01T05:00:00Z,27.4847,-97.3181,0.0,2.8,44.0,3.4,'11111222,11111222,11111222' 
TCOON,ioos:station:TCOON:013:1,2017-09-01T05:06:00Z,27.4847,-97.3181,0.0,2.7,47.0,3.4,'11111222,11111222,11111222' 
TCOON,ioos:station:TCOON:013:1,2017-09-01T05:12:00Z,27.4847,-97.3181,0.0,2.7,44.0,3.0,'11111222,11111222,11111222' 
TCOON,ioos:station:TCOON:013:1,2017-09-01T05:18:00Z,27.4847,-97.3181,0.0,2.7,40.0,3.3,'1111122,1111122,1111122' 
TCOON,ioos:station:TCOON:013:1,2017-09-01T05:24:00Z,27.4847,-97.3181,0.0,2.5,43.0,3.2,'11111222,11111222,11111222' 
TCOON,ioos:station:TCOON:013:1,2017-09-01T05:30:00Z,27.4847,-97.3181,0.0,2.1,44.0,2.8,'11111222,11111222,11111222' 
TCOON,ioos:station:TCOON:013:1,2017-09-01T05:36:00Z,27.4847,-97.3181,0.0,1.6,37.0,2.5,'11111222,11111222,11111222' 
TCOON,ioos:station:TCOON:013:1,2017-09-01T05:42:00Z,27.4847,-97.3181,0.0,1.7,39.0,2.2,'11111222,11111222,11111222' 
TCOON,ioos:station:TCOON:013:1,2017-09-01T05:48:00Z,27.4847,-97.3181,0.0,1.9,28.0,2.3,'11111222,11111222,11111222' 
TCOON,ioos:station:TCOON:013:1,2017-09-01T05:54:00Z,27.4847,-97.3181,0.0,1.7,36.0,2.1,'11111222,11111222,11111222' 
TCOON,ioos:station:TCOON:013:1,2017-09-01T06:00:00Z,27.4847,-97.3181,0.0,1.8,39.0,2.3,'11111222,11111222,11111222' 
TCOON,ioos:station:TCOON:013:1,2017-09-01T06:06:00Z,27.4847,-97.3181,0.0,1.7,52.0,2.4,'11111222,11111222,11111222' 
TCOON,ioos:station:TCOON:013:1,2017-09-01T06:12:00Z,27.4847,-97.3181,0.0,1.9,46.0,2.5,'11111222,11111222,11111222' 
TCOON,ioos:station:TCOON:013:1,2017-09-01T06:18:00Z,27.4847,-97.3181,0.0,2.3,47.0,2.8,'1111122,1111122,1111122' 
TCOON,ioos:station:TCOON:013:1,2017-09-01T06:24:00Z,27.4847,-97.3181,0.0,2.5,42.0,3.0,'11111222,11111222,11111222' 
TCOON,ioos:station:TCOON:013:1,2017-09-01T06:30:00Z,27.4847,-97.3181,0.0,2.3,46.0,3.0,'11111222,11111222,11111222' 
TCOON,ioos:station:TCOON:013:1,2017-09-01T06:36:00Z,27.4847,-97.3181,0.0,2.2,57.0,2.6,'11111222,11111222,11111222' 
TCOON,ioos:station:TCOON:013:1,2017-09-01T06:42:00Z,27.4847,-97.3181,0.0,2.4,63.0,2.9,'11111222,11111222,11111222' 
TCOON,ioos:station:TCOON:013:1,2017-09-01T06:48:00Z,27.4847,-97.3181,0.0,2.4,57.0,3.6,'11111222,11111222,11111222' 
TCOON,ioos:station:TCOON:013:1,2017-09-01T06:54:00Z,27.4847,-97.3181,0.0,2.1,53.0,2.8,'11111222,11111222,11111222' 
TCOON,ioos:station:TCOON:013:1,2017-09-01T07:00:00Z,27.4847,-97.3181,0.0,2.1,57.0,2.8,'11111222,11111222,11111222' 
TCOON,ioos:station:TCOON:013:1,2017-09-01T07:06:00Z,27.4847,-97.3181,0.0,2.0,63.0,2.7,'11111222,11111222,11111222' 
TCOON,ioos:station:TCOON:013:1,2017-09-01T07:12:00Z,27.4847,-97.3181,0.0,1.6,58.0,2.2,'11111222,11111222,11111222' 
TCOON,ioos:station:TCOON:013:1,2017-09-01T07:18:00Z,27.4847,-97.3181,0.0,1.9,60.0,2.4,'1111122,1111122,1111122' 
TCOON,ioos:station:TCOON:013:1,2017-09-01T07:24:00Z,27.4847,-97.3181,0.0,1.8,62.0,2.1,'11111222,11111222,11111222' 
TCOON,ioos:station:TCOON:013:1,2017-09-01T07:30:00Z,27.4847,-97.3181,0.0,1.7,59.0,2.4,'11111222,11111222,11111222' 
TCOON,ioos:station:TCOON:013:1,2017-09-01T07:36:00Z,27.4847,-97.3181,0.0,1.7,51.0,2.2,'11111222,11111222,11111222' 
TCOON,ioos:station:TCOON:013:1,2017-09-01T07:42:00Z,27.4847,-97.3181,0.0,2.0,51.0,2.5,'11111222,11111222,11111222' 
TCOON,ioos:station:TCOON:013:1,2017-09-01T07:48:00Z,27.4847,-97.3181,0.0,2.2,60.0,2.7,'11111222,11111222,11111222' 
TCOON,ioos:station:TCOON:013:1,2017-09-01T07:54:00Z,27.4847,-97.3181,0.0,2.4,59.0,2.8,'11111222,11111222,11111222' 
TCOON,ioos:station:TCOON:013:1,2017-09-01T08:00:00Z,27.4847,-97.3181,0.0,2.3,61.0,2.8,'11111222,11111222,11111222' 
TCOON,ioos:station:TCOON:013:1,2017-09-01T08:06:00Z,27.4847,-97.3181,0.0,2.2,59.0,3.2,'11111222,11111222,11111222' 
TCOON,ioos:station:TCOON:013:1,2017-09-01T08:12:00Z,27.4847,-97.3181,0.0,2.6,62.0,3.1,'11111222,11111222,11111222' 
TCOON,ioos:station:TCOON:013:1,2017-09-01T08:18:00Z,27.4847,-97.3181,0.0,2.5,66.0,2.9,'1111122,1111122,1111122' 
TCOON,ioos:station:TCOON:013:1,2017-09-01T08:24:00Z,27.4847,-97.3181,0.0,1.9,68.0,2.6,'11111222,11111222,11111222' 
TCOON,ioos:station:TCOON:013:1,2017-09-01T08:30:00Z,27.4847,-97.3181,0.0,2.0,68.0,2.7,'11111222,11111222,11111222' 
TCOON,ioos:station:TCOON:013:1,2017-09-01T08:36:00Z,27.4847,-97.3181,0.0,1.9,63.0,2.5,'11111222,11111222,11111222' 
TCOON,ioos:station:TCOON:013:1,2017-09-01T08:42:00Z,27.4847,-97.3181,0.0,1.9,64.0,2.6,'11111222,11111222,11111222' 
TCOON,ioos:station:TCOON:013:1,2017-09-01T08:48:00Z,27.4847,-97.3181,0.0,2.3,65.0,2.6,'11111222,11111222,11111222' 
TCOON,ioos:station:TCOON:013:1,2017-09-01T08:54:00Z,27.4847,-97.3181,0.0,2.2,59.0,2.8,'11111222,11111222,11111222' 
TCOON,ioos:station:TCOON:013:1,2017-09-01T09:00:00Z,27.4847,-97.3181,0.0,2.2,63.0,2.7,'11111222,11111222,11111222' 
TCOON,ioos:station:TCOON:013:1,2017-09-01T09:06:00Z,27.4847,-97.3181,0.0,2.4,61.0,2.8,'11111222,11111222,11111222' 
TCOON,ioos:station:TCOON:013:1,2017-09-01T09:12:00Z,27.4847,-97.3181,0.0,2.6,62.0,3.3,'11111222,11111222,11111222' 
TCOON,ioos:station:TCOON:013:1,2017-09-01T09:18:00Z,27.4847,-97.3181,0.0,2.8,66.0,3.4,'1111122,1111122,1111122' 
TCOON,ioos:station:TCOON:013:1,2017-09-01T09:24:00Z,27.4847,-97.3181,0.0,2.6,70.0,3.5,'11111222,11111222,11111222' 
TCOON,ioos:station:TCOON:013:1,2017-09-01T09:30:00Z,27.4847,-97.3181,0.0,2.6,69.0,3.5,'11111222,11111222,11111222' 
TCOON,ioos:station:TCOON:013:1,2017-09-01T09:36:00Z,27.4847,-97.3181,0.0,2.6,72.0,3.3,'11111222,11111222,11111222' 
TCOON,ioos:station:TCOON:013:1,2017-09-01T09:42:00Z,27.4847,-97.3181,0.0,2.6,68.0,3.3,'11111222,11111222,11111222' 
TCOON,ioos:station:TCOON:013:1,2017-09-01T09:48:00Z,27.4847,-97.3181,0.0,2.5,76.0,3.3,'11111222,11111222,11111222' 
TCOON,ioos:station:TCOON:013:1,2017-09-01T09:54:00Z,27.4847,-97.3181,0.0,2.2,69.0,2.8,'11111222,11111222,11111222' 
TCOON,ioos:station:TCOON:013:1,2017-09-01T10:00:00Z,27.4847,-97.3181,0.0,2.1,70.0,2.8,'11111222,11111222,11111222' 
TCOON,ioos:station:TCOON:013:1,2017-09-01T10:06:00Z,27.4847,-97.3181,0.0,2.2,71.0,2.6,'11111222,11111222,11111222' 
TCOON,ioos:station:TCOON:013:1,2017-09-01T10:12:00Z,27.4847,-97.3181,0.0,2.3,71.0,2.9,'11111222,11111222,11111222' 
TCOON,ioos:station:TCOON:013:1,2017-09-01T10:18:00Z,27.4847,-97.3181,0.0,2.6,74.0,2.9,'1111122,1111122,1111122' 
TCOON,ioos:station:TCOON:013:1,2017-09-01T10:24:00Z,27.4847,-97.3181,0.0,2.6,79.0,3.1,'11111222,11111222,11111222' 
TCOON,ioos:station:TCOON:013:1,2017-09-01T10:30:00Z,27.4847,-97.3181,0.0,2.3,76.0,2.9,'11111222,11111222,11111222' 
TCOON,ioos:station:TCOON:013:1,2017-09-01T10:36:00Z,27.4847,-97.3181,0.0,2.2,69.0,2.6,'11111222,11111222,11111222' 
TCOON,ioos:station:TCOON:013:1,2017-09-01T10:42:00Z,27.4847,-97.3181,0.0,2.1,69.0,2.8,'11111222,11111222,11111222' 
TCOON,ioos:station:TCOON:013:1,2017-09-01T10:48:00Z,27.4847,-97.3181,0.0,2.0,75.0,2.3,'11111222,11111222,11111222' 
TCOON,ioos:station:TCOON:013:1,2017-09-01T10:54:00Z,27.4847,-97.3181,0.0,2.3,75.0,2.7,'11111222,11111222,11111222' 
TCOON,ioos:station:TCOON:013:1,2017-09-01T11:00:00Z,27.4847,-97.3181,0.0,2.1,78.0,2.5,'11111222,11111222,11111222' 
TCOON,ioos:station:TCOON:013:1,2017-09-01T11:06:00Z,27.4847,-97.3181,0.0,2.2,73.0,2.5,'11111222,11111222,11111222' 
TCOON,ioos:station:TCOON:013:1,2017-09-01T11:12:00Z,27.4847,-97.3181,0.0,2.0,72.0,2.4,'11111222,11111222,11111222' 
TCOON,ioos:station:TCOON:013:1,2017-09-01T11:18:00Z,27.4847,-97.3181,0.0,1.7,61.0,2.3,'1111122,1111122,1111122' 
TCOON,ioos:station:TCOON:013:1,2017-09-01T11:24:00Z,27.4847,-97.3181,0.0,1.5,53.0,1.9,'11111222,11111222,11111222' 
TCOON,ioos:station:TCOON:013:1,2017-09-01T11:30:00Z,27.4847,-97.3181,0.0,1.3,50.0,1.7,'11111222,11111222,11111222' 
TCOON,ioos:station:TCOON:013:1,2017-09-01T11:36:00Z,27.4847,-97.3181,0.0,1.7,50.0,1.9,'11111222,11111222,11111222' 
TCOON,ioos:station:TCOON:013:1,2017-09-01T11:42:00Z,27.4847,-97.3181,0.0,1.6,50.0,1.9,'11111222,11111222,11111222' 
TCOON,ioos:station:TCOON:013:1,2017-09-01T11:48:00Z,27.4847,-97.3181,0.0,1.9,56.0,2.1,'11111222,11111222,11111222' 
TCOON,ioos:station:TCOON:013:1,2017-09-01T11:54:00Z,27.4847,-97.3181,0.0,1.6,55.0,2.1,'11111222,11111222,11111222' 
TCOON,ioos:station:TCOON:013:1,2017-09-01T12:00:00Z,27.4847,-97.3181,0.0,1.4,37.0,1.6,'11111222,11111222,11111222' 
TCOON,ioos:station:TCOON:013:1,2017-09-01T12:06:00Z,27.4847,-97.3181,0.0,1.6,33.0,1.7,'11111222,11111222,11111222' 
TCOON,ioos:station:TCOON:013:1,2017-09-01T12:12:00Z,27.4847,-97.3181,0.0,1.8,35.0,2.1,'11111222,11111222,11111222' 
TCOON,ioos:station:TCOON:013:1,2017-09-01T12:18:00Z,27.4847,-97.3181,0.0,1.9,37.0,2.1,'1111122,1111122,1111122' 
TCOON,ioos:station:TCOON:013:1,2017-09-01T12:24:00Z,27.4847,-97.3181,0.0,1.9,34.0,2.2,'11111222,11111222,11111222' 
TCOON,ioos:station:TCOON:013:1,2017-09-01T12:30:00Z,27.4847,-97.3181,0.0,1.6,33.0,2.2,'11111222,11111222,11111222' 
TCOON,ioos:station:TCOON:013:1,2017-09-01T12:36:00Z,27.4847,-97.3181,0.0,1.6,26.0,1.9,'11111222,11111222,11111222' 
TCOON,ioos:station:TCOON:013:1,2017-09-01T12:42:00Z,27.4847,-97.3181,0.0,1.7,25.0,2.0,'11111222,11111222,11111222' 
TCOON,ioos:station:TCOON:013:1,2017-09-01T12:48:00Z,27.4847,-97.3181,0.0,1.8,17.0,2.0,'11111222,11111222,11111222' 
TCOON,ioos:station:TCOON:013:1,2017-09-01T12:54:00Z,27.4847,-97.3181,0.0,1.8,21.0,2.1,'11111222,11111222,11111222' 
TCOON,ioos:station:TCOON:013:1,2017-09-01T13:00:00Z,27.4847,-97.3181,0.0,1.8,25.0,2.1,'11111222,11111222,11111222' 
TCOON,ioos:station:TCOON:013:1,2017-09-01T13:06:00Z,27.4847,-97.3181,0.0,1.8,27.0,2.1,'11111222,11111222,11111222' 
TCOON,ioos:station:TCOON:013:1,2017-09-01T13:12:00Z,27.4847,-97.3181,0.0,1.8,24.0,2.0,'11111222,11111222,11111222' 
TCOON,ioos:station:TCOON:013:1,2017-09-01T13:18:00Z,27.4847,-97.3181,0.0,1.9,33.0,2.4,'1111122,1111122,1111122' 
TCOON,ioos:station:TCOON:013:1,2017-09-01T13:24:00Z,27.4847,-97.3181,0.0,1.8,33.0,2.3,'11111222,11111222,11111222' 
TCOON,ioos:station:TCOON:013:1,2017-09-01T13:30:00Z,27.4847,-97.3181,0.0,2.1,39.0,2.7,'11111222,11111222,11111222' 
TCOON,ioos:station:TCOON:013:1,2017-09-01T13:36:00Z,27.4847,-97.3181,0.0,2.6,35.0,3.3,'11111222,11111222,11111222' 
TCOON,ioos:station:TCOON:013:1,2017-09-01T13:42:00Z,27.4847,-97.3181,0.0,2.6,58.0,3.3,'11111222,11111222,11111222' 
TCOON,ioos:station:TCOON:013:1,2017-09-01T13:48:00Z,27.4847,-97.3181,0.0,2.9,40.0,3.6,'11111222,11111222,11111222' 
TCOON,ioos:station:TCOON:013:1,2017-09-01T13:54:00Z,27.4847,-97.3181,0.0,2.8,55.0,3.7,'11111222,11111222,11111222' 
TCOON,ioos:station:TCOON:013:1,2017-09-01T14:00:00Z,27.4847,-97.3181,0.0,2.8,58.0,3.6,'11111222,11111222,11111222' 
TCOON,ioos:station:TCOON:013:1,2017-09-01T14:06:00Z,27.4847,-97.3181,0.0,3.4,55.0,3.8,'11111222,11111222,11111222' 
TCOON,ioos:station:TCOON:013:1,2017-09-01T14:12:00Z,27.4847,-97.3181,0.0,3.2,70.0,3.9,'11111222,11111222,11111222' 
TCOON,ioos:station:TCOON:013:1,2017-09-01T14:18:00Z,27.4847,-97.3181,0.0,3.3,54.0,4.4,'1111122,1111122,1111122' 
TCOON,ioos:station:TCOON:013:1,2017-09-01T14:24:00Z,27.4847,-97.3181,0.0,3.3,53.0,4.4,'11111222,11111222,11111222' 
TCOON,ioos:station:TCOON:013:1,2017-09-01T14:30:00Z,27.4847,-97.3181,0.0,3.7,46.0,5.0,'11111222,11111222,11111222' 
TCOON,ioos:station:TCOON:013:1,2017-09-01T14:36:00Z,27.4847,-97.3181,0.0,3.7,69.0,4.7,'11111222,11111222,11111222' 
TCOON,ioos:station:TCOON:013:1,2017-09-01T14:42:00Z,27.4847,-97.3181,0.0,3.2,52.0,4.5,'11111222,11111222,11111222' 
TCOON,ioos:station:TCOON:013:1,2017-09-01T14:48:00Z,27.4847,-97.3181,0.0,3.6,61.0,4.9,'11111222,11111222,11111222' 
TCOON,ioos:station:TCOON:013:1,2017-09-01T14:54:00Z,27.4847,-97.3181,0.0,4.0,71.0,5.3,'11111222,11111222,11111222' 
TCOON,ioos:station:TCOON:013:1,2017-09-01T15:00:00Z,27.4847,-97.3181,0.0,4.6,47.0,5.6,'11111222,11111222,11111222' 
TCOON,ioos:station:TCOON:013:1,2017-09-01T15:06:00Z,27.4847,-97.3181,0.0,4.3,40.0,5.4,'11111222,11111222,11111222' 
TCOON,ioos:station:TCOON:013:1,2017-09-01T15:12:00Z,27.4847,-97.3181,0.0,3.9,44.0,5.4,'11111222,11111222,11111222' 
TCOON,ioos:station:TCOON:013:1,2017-09-01T15:18:00Z,27.4847,-97.3181,0.0,4.4,55.0,5.5,'1111122,1111122,1111122' 
TCOON,ioos:station:TCOON:013:1,2017-09-01T15:24:00Z,27.4847,-97.3181,0.0,3.2,54.0,5.3,'11111222,11111222,11111222' 
TCOON,ioos:station:TCOON:013:1,2017-09-01T15:30:00Z,27.4847,-97.3181,0.0,3.4,28.0,5.1,'11111222,11111222,11111222' 
TCOON,ioos:station:TCOON:013:1,2017-09-01T15:36:00Z,27.4847,-97.3181,0.0,2.7,38.0,4.5,'11111222,11111222,11111222' 
TCOON,ioos:station:TCOON:013:1,2017-09-01T15:42:00Z,27.4847,-97.3181,0.0,3.5,36.0,4.5,'11111222,11111222,11111222' 
TCOON,ioos:station:TCOON:013:1,2017-09-01T15:48:00Z,27.4847,-97.3181,0.0,3.2,32.0,5.2,'11111222,11111222,11111222' 
TCOON,ioos:station:TCOON:013:1,2017-09-01T15:54:00Z,27.4847,-97.3181,0.0,3.5,15.0,4.7,'11111222,11111222,11111222' 
TCOON,ioos:station:TCOON:013:1,2017-09-01T16:00:00Z,27.4847,-97.3181,0.0,3.1,20.0,5.1,'11111222,11111222,11111222' 
TCOON,ioos:station:TCOON:013:1,2017-09-01T16:06:00Z,27.4847,-97.3181,0.0,3.4,17.0,4.5,'11111222,11111222,11111222' 
TCOON,ioos:station:TCOON:013:1,2017-09-01T16:12:00Z,27.4847,-97.3181,0.0,2.6,22.0,4.1,'11111222,11111222,11111222' 
TCOON,ioos:station:TCOON:013:1,2017-09-01T16:18:00Z,27.4847,-97.3181,0.0,3.7,27.0,4.8,'1111122,1111122,1111122' 
TCOON,ioos:station:TCOON:013:1,2017-09-01T16:24:00Z,27.4847,-97.3181,0.0,3.3,30.0,5.0,'11111222,11111222,11111222' 
TCOON,ioos:station:TCOON:013:1,2017-09-01T16:30:00Z,27.4847,-97.3181,0.0,3.6,32.0,4.4,'11111222,11111222,11111222' 
TCOON,ioos:station:TCOON:013:1,2017-09-01T16:36:00Z,27.4847,-97.3181,0.0,4.0,11.0,5.2,'11111222,11111222,11111222' 
TCOON,ioos:station:TCOON:013:1,2017-09-01T16:42:00Z,27.4847,-97.3181,0.0,4.3,21.0,5.3,'11111222,11111222,11111222' 
TCOON,ioos:station:TCOON:013:1,2017-09-01T16:48:00Z,27.4847,-97.3181,0.0,4.1,11.0,5.1,'11111222,11111222,11111222' 
TCOON,ioos:station:TCOON:013:1,2017-09-01T16:54:00Z,27.4847,-97.3181,0.0,4.4,27.0,5.7,'11111222,11111222,11111222' 
TCOON,ioos:station:TCOON:013:1,2017-09-01T17:00:00Z,27.4847,-97.3181,0.0,3.8,20.0,5.0,'11111222,11111222,11111222' 
TCOON,ioos:station:TCOON:013:1,2017-09-01T17:06:00Z,27.4847,-97.3181,0.0,3.8,26.0,5.4,'11111222,11111222,11111222' 
TCOON,ioos:station:TCOON:013:1,2017-09-01T17:12:00Z,27.4847,-97.3181,0.0,3.6,29.0,5.2,'11111222,11111222,11111222' 
TCOON,ioos:station:TCOON:013:1,2017-09-01T17:18:00Z,27.4847,-97.3181,0.0,3.6,30.0,5.1,'1111122,1111122,1111122' 
TCOON,ioos:station:TCOON:013:1,2017-09-01T17:24:00Z,27.4847,-97.3181,0.0,3.8,29.0,5.6,'11111222,11111222,11111222' 
TCOON,ioos:station:TCOON:013:1,2017-09-01T17:30:00Z,27.4847,-97.3181,0.0,4.5,21.0,5.8,'11111222,11111222,11111222' 
TCOON,ioos:station:TCOON:013:1,2017-09-01T17:36:00Z,27.4847,-97.3181,0.0,4.9,18.0,6.3,'11111222,11111222,11111222' 
TCOON,ioos:station:TCOON:013:1,2017-09-01T17:42:00Z,27.4847,-97.3181,0.0,4.8,24.0,6.6,'11111222,11111222,11111222' 
TCOON,ioos:station:TCOON:013:1,2017-09-01T17:48:00Z,27.4847,-97.3181,0.0,5.0,18.0,6.0,'11111222,11111222,11111222' 
TCOON,ioos:station:TCOON:013:1,2017-09-01T17:54:00Z,27.4847,-97.3181,0.0,5.0,17.0,6.6,'11111222,11111222,11111222' 
TCOON,ioos:station:TCOON:013:1,2017-09-01T18:00:00Z,27.4847,-97.3181,0.0,5.0,18.0,6.4,'11111222,11111222,11111222' 
TCOON,ioos:station:TCOON:013:1,2017-09-01T18:06:00Z,27.4847,-97.3181,0.0,5.3,31.0,6.4,'11111222,11111222,11111222' 
TCOON,ioos:station:TCOON:013:1,2017-09-01T18:12:00Z,27.4847,-97.3181,0.0,5.7,27.0,7.3,'11111222,11111222,11111222' 
TCOON,ioos:station:TCOON:013:1,2017-09-01T18:18:00Z,27.4847,-97.3181,0.0,5.3,22.0,6.8,'1111122,1111122,1111122' 
TCOON,ioos:station:TCOON:013:1,2017-09-01T18:24:00Z,27.4847,-97.3181,0.0,5.7,19.0,6.5,'11111222,11111222,11111222' 
TCOON,ioos:station:TCOON:013:1,2017-09-01T18:30:00Z,27.4847,-97.3181,0.0,5.3,25.0,7.2,'11111222,11111222,11111222' 
TCOON,ioos:station:TCOON:013:1,2017-09-01T18:36:00Z,27.4847,-97.3181,0.0,5.6,16.0,7.2,'11111222,11111222,11111222' 
TCOON,ioos:station:TCOON:013:1,2017-09-01T18:42:00Z,27.4847,-97.3181,0.0,6.2,29.0,7.4,'11111222,11111222,11111222' 
TCOON,ioos:station:TCOON:013:1,2017-09-01T18:48:00Z,27.4847,-97.3181,0.0,5.4,39.0,7.1,'11111222,11111222,11111222' 
TCOON,ioos:station:TCOON:013:1,2017-09-01T18:54:00Z,27.4847,-97.3181,0.0,6.2,26.0,7.3,'11111222,11111222,11111222' 
TCOON,ioos:station:TCOON:013:1,2017-09-01T19:00:00Z,27.4847,-97.3181,0.0,6.0,27.0,7.3,'11111222,11111222,11111222' 
TCOON,ioos:station:TCOON:013:1,2017-09-01T19:06:00Z,27.4847,-97.3181,0.0,6.0,31.0,7.3,'11111222,11111222,11111222' 
TCOON,ioos:station:TCOON:013:1,2017-09-01T19:12:00Z,27.4847,-97.3181,0.0,6.9,22.0,8.3,'11111222,11111222,11111222' 
TCOON,ioos:station:TCOON:013:1,2017-09-01T19:18:00Z,27.4847,-97.3181,0.0,6.1,30.0,7.4,'1111122,1111122,1111122' 
TCOON,ioos:station:TCOON:013:1,2017-09-01T19:24:00Z,27.4847,-97.3181,0.0,5.6,35.0,7.9,'11111222,11111222,11111222' 
TCOON,ioos:station:TCOON:013:1,2017-09-01T19:30:00Z,27.4847,-97.3181,0.0,5.8,38.0,7.4,'11111222,11111222,11111222' 
TCOON,ioos:station:TCOON:013:1,2017-09-01T19:36:00Z,27.4847,-97.3181,0.0,5.4,35.0,7.7,'11111222,11111222,11111222' 
TCOON,ioos:station:TCOON:013:1,2017-09-01T19:42:00Z,27.4847,-97.3181,0.0,5.8,25.0,6.8,'11111222,11111222,11111222' 
TCOON,ioos:station:TCOON:013:1,2017-09-01T19:48:00Z,27.4847,-97.3181,0.0,5.6,33.0,7.1,'11111222,11111222,11111222' 
TCOON,ioos:station:TCOON:013:1,2017-09-01T19:54:00Z,27.4847,-97.3181,0.0,5.3,40.0,7.0,'11111222,11111222,11111222' 
TCOON,ioos:station:TCOON:013:1,2017-09-01T20:00:00Z,27.4847,-97.3181,0.0,5.1,35.0,7.4,'11111222,11111222,11111222' 
TCOON,ioos:station:TCOON:013:1,2017-09-01T20:06:00Z,27.4847,-97.3181,0.0,5.8,50.0,6.8,'11111222,11111222,11111222' 
TCOON,ioos:station:TCOON:013:1,2017-09-01T20:12:00Z,27.4847,-97.3181,0.0,5.1,44.0,7.3,'11111222,11111222,11111222' 
TCOON,ioos:station:TCOON:013:1,2017-09-01T20:18:00Z,27.4847,-97.3181,0.0,5.2,56.0,6.6,'1111122,1111122,1111122' 
TCOON,ioos:station:TCOON:013:1,2017-09-01T20:24:00Z,27.4847,-97.3181,0.0,5.4,40.0,7.8,'11111222,11111222,11111222' 
TCOON,ioos:station:TCOON:013:1,2017-09-01T20:30:00Z,27.4847,-97.3181,0.0,5.8,41.0,7.4,'11111222,11111222,11111222' 